CAPE
0 0 0 0 0 0 0 0 0 0 0 0 0 0 0 0 0 0 0 0 0 0 0 0 0 0 0 0 0 0 0 0 0 0 0 0 0 0 0 0 0 0 0
0 0 0 0 0 0 0 0 0 0 0 0 0 0 0 0 0 0 0 0 0 0 0 0 0 0 0 0 0 0 0 0 0 0 0 0 0 0 0 0 0 0 0
0 0 0 0 0 0 0 0 0 0 0 0 0 0 0 0 0 0 0 0 0 0 0 0 0 0 0 0 0 0 0 0 0 0 0 0 0 0 0 0 0 0 0
0 0 0 0 0 0 0 0 0 0 0 0 0 0 0 0 0 0 0 0 0 0 0 0 0 0 0 0 0 0 0 0 0 0 0 0 0 0 0 0 0 0 0
0 0 0 0 0 0 0 0 0 0 0 0 0 0 0 0 0 0 0 0 0 0 0 0 0 0 0 0 0 0 0 0 0 0 0 0 0 0 0 0 0 0 0
0 0 0 0 0 0 0 0 0 0 0 0 0 0 0 0 0 0 0 0 0 0 0 0 0 0 0 0 0 0 0 0 0 0 0 0 0 0 0 0 0 0 0
0 0 0 0 0 0 0 0 0 0 0 0 0 0 0 0 0 0 0 0 0 0 0 0 0 0 0 0 0 0 0 0 0 0 0 0 0 0 0 0 0 0 0
0 0 0 0 0 0 0 0 0 0 0 0 0 0 0 0 0 0 0 0 0 0 0 0 0 0 0 0 0 0 0 0 0 0 0 0 0 0 0 0 0 0 0
0 0 0 0 0 0 0 0 0 0 0 0 0 0 0 0 0 0 0 0 0 0 0 0 0 0 0 0 0 0 0 0 0 0 0 0 0 0 0 0 0 0 0
0 0 0 0 0 0 0 0 0 0 0 0 0 0 0 0 0 0 0 0 0 0 0 0 0 0 0 0 0 0 0 0 0 0 0 0 0 0 0 0 0 0 0
0 0 0 0 0 0 0 0 0 0 0 0 0 0 0 0 0 0 0 0 0 0 0 0 0 0 0 0 0 0 0 0 0 0 0 0 0 0 0 0 0 0 0
0 0 0 0 0 0 0 0 0 0 0 0 0 0 0 0 0 0 0 0 0 0 0 0 0 0 0 0 0 0 0 0 0 0 0 0 0 0 0 0 0 0 0
0 0 0 0 0 0 0 0 0 0 0 0 0 0 0 0 0 0 0 0 0 0 0 0 0 0 0 0 0 0 0 0 0 0 0 0 0 0 0 0 0 0 0
0 0 0 0 0 0 0 0 0 0 0 0 0 0 0 0 0 0 0 0 0 0 0 0 0 0 0 0 0 0 0 0 0 0 0 0 0 0 0 0 0 0 0
0 0 0 0 0 0 0 0 0 0 0 0 0 0 0 0 0 0 0 0 0 0 0 0 0 0 0 0 0 0 0 0 0 0 0 0 0 0 4 6 0 3 0
0 0 0 0 0 0 0 0 0 0 0 0 0 0 0 0 0 0 0 0 0 0 0 0 0 0 0 0 0 0 0 0 0 0 0 0 0 0 11 10 19 13 18
0 0 0 0 0 0 0 0 0 0 0 0 0 0 0 0 0 0 0 0 0 0 0 0 0 0 0 0 0 0 0 0 0 0 0 0 0 1 0 3 12 2 7
0 0 0 0 0 0 0 0 0 0 0 0 0 0 0 0 0 0 0 0 0 0 0 0 0 0 0 0 0 0 0 0 0 0 0 0 0 0 6 3 11 3 0
0 0 0 0 0 0 0 0 0 0 0 0 0 0 0 0 0 0 0 0 0 0 0 0 0 0 0 0 0 0 0 0 0 0 0 0 1 4 13 36 1 0 0
0 0 0 0 0 0 0 0 0 0 0 0 0 0 0 0 0 0 0 0 0 0 0 0 0 0 0 0 0 0 0 0 0 0 0 1 6 17 41 3 0 0 0
0 0 0 0 0 0 0 0 0 0 0 0 0 0 0 0 0 0 0 0 0 0 0 0 0 0 0 0 0 0 2 0 1 0 0 0 11 17 7 4 0 0 7
0 0 0 0 0 0 0 0 0 0 0 0 0 0 0 0 0 0 0 0 0 0 0 0 0 0 0 0 0 1 9 13 1 0 0 3 15 2 0 0 3 6 2
0 0 0 0 0 0 0 0 0 0 0 0 0 0 0 0 0 0 0 0 0 0 0 0 0 0 0 0 0 0 8 7 6 4 17 5 0 0 0 0 0 0 0
0 0 0 0 0 0 0 0 0 0 0 0 0 0 0 0 0 0 0 0 0 0 0 0 0 0 0 0 0 0 0 1 0 6 0 0 0 0 0 0 0 0 0
0 0 0 0 0 0 0 0 0 0 0 0 0 0 0 0 0 0 0 0 0 0 0 0 0 0 0 0 2 2 2 7 4 1 0 0 0 0 0 0 0 0 0
0 0 0 0 0 0 0 0 0 0 0 0 0 0 0 0 0 0 0 0 0 0 0 0 0 0 0 0 0 5 8 4 1 0 0 0 0 0 0 0 0 0 0
CIN
0 0 0 0 0 0 0 0 0 0 0 0 0 0 0 0 0 0 0 0 0 0 0 0 0 0 0 0 0 0 0 0 0 0 0 0 0 0 0 0 0 0 0
0 0 0 0 0 0 0 0 0 0 0 0 0 0 0 0 0 0 0 0 0 0 0 0 0 0 0 0 0 0 0 0 0 0 0 0 0 0 0 0 0 0 0
0 0 0 0 0 0 0 0 0 0 0 0 0 0 0 0 0 0 0 0 0 0 0 0 0 0 0 0 0 0 0 0 0 0 0 0 0 0 0 0 0 0 0
0 0 0 0 0 0 0 0 0 0 0 0 0 0 0 0 0 0 0 0 0 0 0 0 0 0 0 0 0 0 0 0 0 0 0 0 0 0 0 0 0 0 0
0 0 0 0 0 0 0 0 0 0 0 0 0 0 0 0 0 0 0 0 0 0 0 0 0 0 0 0 0 0 0 0 0 0 0 0 0 0 0 0 0 0 0
0 0 0 0 0 0 0 0 0 0 0 0 0 0 0 0 0 0 0 0 0 0 0 0 0 0 0 0 0 0 0 0 0 0 0 0 0 0 0 0 0 0 0
0 0 0 0 0 0 0 0 0 0 0 0 0 0 0 0 0 0 0 0 0 0 0 0 0 0 0 0 0 0 0 0 0 0 0 0 0 0 0 0 0 0 0
0 0 0 0 0 0 0 0 0 0 0 0 0 0 0 0 0 0 0 0 0 0 0 0 0 0 0 0 0 0 0 0 0 0 0 0 0 0 0 0 0 0 0
0 0 0 0 0 0 0 0 0 0 0 0 0 0 0 0 0 0 0 0 0 0 0 0 0 0 0 0 0 0 0 0 0 0 0 0 0 0 0 0 0 0 0
0 0 0 0 0 0 0 0 0 0 0 0 0 0 0 0 0 0 0 0 0 0 0 0 0 0 0 0 0 0 0 0 0 0 0 0 0 0 0 0 0 0 0
0 0 0 0 0 0 0 0 0 0 0 0 0 0 0 0 0 0 0 0 0 0 0 0 0 0 0 0 0 0 0 0 0 0 0 0 0 0 0 0 0 0 0
0 0 0 0 0 0 0 0 0 0 0 0 0 0 0 0 0 0 0 0 0 0 0 0 0 0 0 0 0 0 0 0 0 0 0 0 0 0 0 0 0 0 0
0 0 0 0 0 0 0 0 0 0 0 0 0 0 0 0 0 0 0 0 0 0 0 0 0 0 0 0 0 0 0 0 0 0 0 0 0 0 0 0 0 0 -2
0 0 0 0 0 0 0 0 0 0 0 0 0 0 0 0 0 0 0 0 0 0 0 0 0 0 0 0 0 0 0 0 0 0 0 0 0 0 0 0 -2 -4 0
0 0 0 0 0 0 0 0 0 0 0 0 0 0 0 0 0 0 0 0 0 0 0 0 0 0 0 0 0 0 0 0 0 0 0 0 0 0 -3 -2 -6 -2 -2
0 0 0 0 0 0 0 0 0 0 0 0 0 0 0 0 0 0 0 0 0 0 0 0 0 0 0 0 0 0 0 0 0 0 0 0 0 0 -2 -2 -2 -3 -3
0 0 0 0 0 0 0 0 0 0 0 0 0 0 0 0 0 0 0 0 0 0 0 0 0 0 0 0 0 0 0 0 0 0 0 0 0 -2 -1 -9 -3 -2 -5
0 0 0 0 0 0 0 0 0 0 0 0 0 0 0 0 0 0 0 0 0 0 0 0 0 0 0 0 0 0 0 0 0 0 0 0 0 0 -4 -7 -7 -4 0
0 0 0 0 0 0 0 0 0 0 0 0 0 0 0 0 0 0 0 0 0 0 0 0 0 0 0 0 0 0 0 0 0 0 0 -1 -4 -1 -6 -2 -3 0 0
0 0 0 0 0 0 0 0 0 0 0 0 0 0 0 0 0 0 0 0 0 0 0 0 0 0 0 0 0 0 0 0 0 0 0 -1 -3 -3 -2 -7 0 0 0
0 0 0 0 0 0 0 0 0 0 0 0 0 0 0 0 0 0 0 0 0 0 0 0 0 0 0 0 0 -1 -3 -2 -2 -1 0 0 -1 -3 -5 -4 0 -1 -5
0 0 0 0 0 0 0 0 0 0 0 0 0 0 0 0 0 0 0 0 0 0 0 0 0 0 0 0 0 -1 -2 -3 -5 -6 0 -4 -2 -4 -1 -1 -3 -3 -4
0 0 0 0 0 0 0 0 0 0 0 0 0 0 0 0 0 0 0 0 0 0 0 0 0 0 0 0 0 -1 -2 -2 -4 -9 -1 -1 -1 0 0 0 -1 -1 0
0 0 0 0 0 0 0 0 0 0 0 0 0 0 0 0 0 0 0 0 0 0 0 0 0 0 0 0 0 -4 0 -2 -1 -2 0 0 0 0 0 0 0 0 0
0 0 0 0 0 0 0 0 0 0 0 0 0 0 0 0 0 0 0 0 0 0 0 0 0 0 0 0 -3 -4 -4 -4 -4 -4 0 0 0 0 0 0 0 0 0
0 0 0 0 0 0 0 0 0 0 0 0 0 0 0 0 0 0 0 0 0 0 0 0 0 0 0 0 -1 -2 -2 -2 -2 0 0 0 0 0 0 0 0 0 0
Wind_Speed
21 18 16 16 14 13 12 8 6 7 7 4 3 3 6 7 10 12 13 14 15 17 19 22 24 26 27 28 29 28 30 30 35 32 35 29 27 27 34 36 35 35 35
22 18 15 14 14 11 8 3 2 4 5 4 4 4 4 8 9 11 13 14 16 18 21 23 25 26 27 28 29 30 30 30 33 34 33 36 33 27 42 31 39 35 41
21 17 14 10 10 8 4 1 3 4 3 2 1 3 5 7 9 10 12 15 17 19 22 23 25 26 27 28 29 30 31 32 31 32 33 38 38 46 31 42 34 46 40
24 17 13 10 7 6 3 2 4 4 3 2 1 1 2 4 6 8 11 14 18 20 22 24 25 27 27 28 29 29 31 32 35 32 34 31 35 43 50 37 46 39 47
22 17 15 11 6 5 4 3 4 4 3 1 2 2 4 5 7 9 11 15 18 21 23 24 26 27 28 28 29 30 32 32 33 35 36 36 37 36 43 55 49 48 46
23 18 15 11 8 6 5 4 4 3 3 3 3 3 5 5 7 9 12 15 19 22 24 25 26 27 29 30 31 31 33 34 35 36 37 39 41 44 44 51 55 56 51
22 17 15 12 10 8 7 5 4 3 3 3 3 3 4 5 7 10 13 16 20 22 25 26 28 29 30 31 32 34 35 36 37 38 39 38 39 39 43 49 57 57 55
21 18 16 13 10 9 7 6 5 4 3 2 2 3 5 7 10 12 15 18 20 22 24 26 28 30 31 32 34 35 37 37 38 39 40 39 39 40 43 48 54 64 60
22 19 15 13 11 10 9 7 6 4 3 2 2 3 6 8 11 14 17 19 21 23 26 27 30 31 33 34 36 38 39 38 38 39 37 40 42 44 46 46 46 52 67
20 17 15 13 11 10 9 7 6 5 2 1 2 5 7 10 12 15 18 20 22 25 27 29 31 33 35 36 38 39 39 39 39 37 40 43 45 47 47 46 46 47 52
17 15 13 12 11 10 9 8 6 4 2 1 3 6 8 11 14 17 19 22 24 26 29 31 33 35 37 38 40 40 39 38 39 39 42 44 46 48 48 47 46 48 48
13 13 12 11 11 11 10 8 6 4 2 2 4 7 10 12 15 18 21 23 26 28 30 32 35 37 39 40 41 40 39 39 42 43 43 46 48 49 48 48 50 50 50
11 10 10 11 12 11 10 8 5 3 2 3 5 8 11 14 17 20 22 25 27 29 31 34 37 39 40 40 40 38 39 41 42 43 44 47 49 52 51 51 51 50 49
11 9 9 11 11 10 9 7 5 3 2 3 6 10 13 16 18 21 23 26 28 31 34 36 37 39 40 39 38 40 41 43 43 42 43 46 49 51 52 52 51 51 53
12 11 11 11 10 9 8 6 4 3 2 5 8 12 14 16 19 22 24 27 29 32 34 36 38 39 39 38 41 42 43 45 45 45 45 45 47 50 50 50 52 51 50
10 8 8 9 10 9 7 5 4 2 3 6 10 12 14 17 20 23 26 29 31 33 35 37 39 39 39 42 43 45 45 46 48 50 49 47 49 48 49 50 48 47 49
7 7 8 9 8 7 6 5 3 2 4 7 10 12 15 18 21 25 27 30 32 34 36 37 38 40 41 43 45 46 46 47 49 50 50 50 47 48 47 47 47 45 43
4 4 5 4 5 4 3 2 0 2 5 8 11 13 16 19 23 25 28 30 32 35 36 37 38 40 41 44 46 47 45 47 47 47 47 47 48 46 48 48 45 40 40
2 2 4 5 4 4 3 2 1 4 6 9 11 14 17 20 23 27 29 31 33 34 35 36 39 42 43 44 46 46 46 48 48 46 44 46 45 46 47 45 43 40 37
1 2 3 4 4 3 4 2 2 5 7 9 12 15 18 21 25 27 30 31 32 33 35 39 40 42 43 43 44 46 47 49 49 46 44 43 45 45 44 45 41 40 19
3 3 3 4 4 5 4 3 5 7 8 11 14 17 20 23 25 27 29 31 33 36 39 41 41 41 41 42 43 45 46 47 48 46 45 43 42 44 47 42 35 16 23
5 5 6 6 6 4 4 5 6 8 10 13 16 18 21 23 25 28 31 32 35 39 42 44 45 42 40 41 44 45 46 45 46 44 43 39 42 45 39 35 18 36 40
7 7 7 7 6 6 6 7 8 10 12 15 17 19 22 23 26 29 32 35 38 42 44 45 45 46 43 43 44 45 45 45 44 41 39 40 41 38 31 16 28 26 12
7 7 8 7 7 7 8 8 9 11 13 16 18 20 22 25 27 29 33 37 40 42 43 45 46 46 45 45 45 45 44 42 41 39 37 39 37 21 15 20 10 9 14
10 9 8 8 8 8 9 10 11 13 15 17 19 21 23 26 29 32 35 38 37 39 42 43 44 47 47 45 47 46 44 43 42 41 37 35 16 25 26 10 10 10 11
9 9 9 9 9 9 10 12 13 14 15 18 20 22 26 29 32 35 37 35 35 37 38 40 41 42 42 44 44 42 42 42 39 37 35 23 24 21 18 14 14 12 15
Wind_Direction
265 274 284 287 293 294 288 271 246 244 236 244 278 312 332 358 1 5 12 13 7 1 358 355 354 351 349 349 347 346 342 340 337 336 333 335 334 334 330 332 332 333 332
262 270 277 284 287 291 294 281 195 198 227 240 281 304 354 1 14 16 16 9 2 358 356 356 354 352 351 349 347 346 343 342 340 337 336 329 330 330 327 332 329 330 329
251 261 267 274 282 282 282 174 135 143 163 168 87 12 17 12 11 22 16 6 3 359 358 356 355 353 353 349 348 346 344 341 343 344 341 329 325 323 329 325 329 324 325
253 253 254 261 263 266 256 171 141 131 138 148 142 118 353 33 25 28 22 9 2 359 357 356 355 354 353 350 348 347 345 343 340 341 340 338 332 326 320 326 323 326 322
240 237 241 245 249 242 230 176 146 131 135 136 111 72 62 40 37 30 12 5 359 357 356 355 354 352 351 350 348 346 344 344 341 338 336 334 331 329 323 319 323 323 323
239 237 240 237 239 233 221 194 163 146 131 119 102 91 78 56 30 9 360 356 352 352 352 352 352 350 348 347 346 345 343 341 339 337 335 332 329 326 325 321 321 320 323
226 218 216 220 225 216 215 213 185 164 144 123 97 80 55 28 10 1 354 350 347 347 347 348 347 347 347 346 344 342 340 339 337 335 334 333 330 329 327 323 320 319 321
222 214 214 216 213 209 203 201 183 171 158 133 85 46 21 5 357 353 351 348 347 347 347 347 346 345 344 343 341 340 338 338 336 335 334 333 332 331 328 325 322 318 318
212 208 211 207 207 204 202 196 183 165 154 130 66 11 2 356 352 351 349 346 346 346 344 344 342 342 342 340 339 338 336 336 336 335 335 333 331 330 328 326 324 320 317
209 207 203 204 212 207 201 192 183 170 165 126 5 354 353 351 350 348 345 345 345 342 341 341 341 339 339 339 338 337 336 336 336 336 334 332 331 330 329 327 325 322 319
200 194 202 213 210 200 192 187 184 183 188 311 345 349 347 347 345 344 344 343 342 341 340 339 338 337 337 337 337 337 336 336 336 335 333 332 332 331 329 327 325 322 321
188 189 192 193 189 188 189 188 190 194 225 324 341 342 344 343 342 341 341 341 340 340 339 338 337 336 337 337 337 337 337 336 335 334 333 332 332 331 330 328 325 322 321
183 187 183 178 179 181 182 184 193 208 254 320 336 338 339 339 338 339 340 340 339 339 338 337 336 337 337 337 338 338 337 336 335 334 333 332 332 331 329 327 325 324 323
168 178 176 173 174 178 183 188 203 216 266 322 332 334 334 335 336 339 340 339 339 338 337 337 338 338 338 338 339 338 337 336 335 334 333 332 331 330 329 328 326 325 323
158 161 166 171 176 177 184 193 204 230 288 319 326 328 332 336 338 339 339 339 339 338 338 339 339 339 340 340 338 338 337 336 335 335 334 333 332 331 330 329 328 326 325
152 162 167 174 177 180 189 205 223 250 301 318 324 331 334 336 337 338 337 338 338 339 339 339 340 340 341 340 339 338 337 337 336 334 334 334 333 332 331 330 329 328 327
154 162 160 163 175 180 176 183 200 283 316 326 331 332 334 336 336 336 337 338 338 339 340 341 341 340 340 340 340 339 339 338 336 335 335 334 335 334 333 331 330 330 330
149 157 162 167 161 158 160 154 173 333 333 332 332 334 335 336 337 338 339 338 340 340 341 341 341 341 341 341 341 340 340 338 337 337 337 336 336 336 335 334 335 338 337
268 125 133 139 136 140 133 120 29 346 340 337 337 339 339 339 339 338 339 340 341 341 342 342 341 341 341 342 342 341 340 339 338 339 339 338 337 337 337 339 340 340 340
342 92 98 106 108 105 108 83 18 352 344 346 345 343 342 340 339 340 341 342 342 342 342 341 342 342 342 343 343 342 340 339 339 339 339 340 340 340 342 341 342 342 317
57 74 74 84 95 97 84 24 359 349 352 350 347 344 342 342 343 343 343 343 343 342 341 342 344 344 344 344 344 343 342 341 340 340 341 342 342 343 341 343 348 318 316
59 60 70 73 73 62 30 9 4 2 356 351 346 345 345 345 345 344 344 344 343 341 340 341 342 344 345 345 344 343 343 343 342 342 342 344 344 343 347 351 298 349 345
59 57 67 61 44 34 32 21 7 0 354 350 349 348 348 349 348 346 345 343 342 341 341 341 342 343 345 345 344 344 345 345 344 345 345 346 346 349 355 352 359 299 306
55 57 60 54 38 28 17 15 9 2 358 353 350 350 350 349 348 348 347 343 343 342 342 342 342 343 344 345 345 346 346 347 348 348 349 348 351 297 351 4 337 318 297
64 59 50 43 32 24 20 15 8 2 356 355 354 352 351 349 348 348 347 345 347 346 344 344 344 343 344 345 346 347 347 349 349 348 351 354 322 5 6 319 320 317 313
56 45 36 34 29 25 18 10 5 2 -0 356 353 352 348 347 346 345 345 351 350 349 349 347 347 346 345 346 347 348 349 350 351 353 355 297 6 9 295 302 306 312 304